Location: Archemont
(49.1579°N, 1.7598°E)
Time: 21:59:42
(UTC+00:00)

Altair - Pass Details

Date: 21 April 2024
Orbit: 1501 x 1682 km, 47.2° (Epoch: 19 May)

Event Time Altitude Azimuth Distance (km) Brightness Sun altitude
Rises 21:07:20 0° 265° (W) 4,901 10.7 -18.7°
Reaches altitude 10° 21:10:31 10° 265° (W) 3,897 10.1 -19.1°
Maximum altitude 21:20:29 81° 180° (S) 1,629 7.5 -20.2°
Enters shadow 21:29:04 14° 95° (E) 3,447 8.9 -21.0°
Drops below altitude 10° 21:30:04 10° 95° (E) 3,755 - -21.1°
Sets 21:33:04 0° 95° (E) 4,716 - -21.4°
